"Pseudo-MPEC" for CARRY52

Created 2024 Sep 8 17:22:08 UT using Find_Orb

Click here for an explanation of pseudo-MPECs

 
 Astrometry: 
     CARRY52*1C2024 09 07.38843903 09 53.255+14 28 35.54   ~97AM 20.86GVNEOCPG96
     CARRY52 1C2024 09 07.39359103 09 53.633+14 28 42.17   ~97AM 21.34GVNEOCPG96
     CARRY52 1C2024 09 07.39964903 09 54.130+14 28 50.45   ~97AM 21.19GVNEOCPG96
     CARRY52 1C2024 09 07.40481303 09 54.472+14 28 56.32   ~97AM 21.56GVNEOCPG96
     CARRY52 mC2024 09 07.48692603 10 00.736+14 30 42.73   ~97C7 21.29GVNEOCPV06
     CARRY52 mC2024 09 07.48806603 10 00.829+14 30 44.10   ~97C7 21.34GVNEOCPV06
     CARRY52 mC2024 09 07.48920903 10 00.919+14 30 45.61   ~97C7 21.31GVNEOCPV06
     CARRY52 mC2024 09 07.49035203 10 00.995+14 30 47.12   ~97C7 21.36GVNEOCPV06
     CARRY52 1C2024 09 07.99101 03 10 41.15 +14 41 31.4    ~980M 21.1 VXNEOCP033
     CARRY52 1C2024 09 07.99393 03 10 41.37 +14 41 35.1    ~980M 21.3 VXNEOCP033
     CARRY52 1C2024 09 07.99685 03 10 41.60 +14 41 39.0    ~980M 21.2 VXNEOCP033
     CARRY52 1C2024 09 08.00007 03 10 41.84 +14 41 43.0    ~980b 21.1 VXNEOCP033
     CARRY52 1C2024 09 08.00299 03 10 42.07 +14 41 47.0    ~980b 21.4 VXNEOCP033
     CARRY52 1C2024 09 08.00591 03 10 42.31 +14 41 50.7    ~980b 21.3 VXNEOCP033
     CARRY52 KC2024 09 08.34719303 11 09.03 +14 49 16.3    ~9897 21.4 GVNEOCPH21
     CARRY52 KC2024 09 08.35138803 11 09.36 +14 49 21.2    ~9897 21.3 GVNEOCPH21
     CARRY52 KC2024 09 08.35461003 11 09.60 +14 49 25.7    ~9897 21.1 GVNEOCPH21
     CARRY52 KC2024 09 08.35828503 11 09.91 +14 49 30.8    ~9897 21.2 GVNEOCPH21
     CARRY52 KC2024 09 08.36988403 11 11.040+14 49 46.31   ~989M 21.21GVNEOCPI52
     CARRY52 KC2024 09 08.37260303 11 11.159+14 49 49.84   ~989M 21.06GVNEOCPI52
     CARRY52 KC2024 09 08.37567703 11 11.418+14 49 53.58   ~989M 20.94GVNEOCPI52
     CARRY52 KC2024 09 08.37875103 11 11.656+14 49 57.83   ~989M 21.47GVNEOCPI52

Station data:
(033) Karl Schwarzschild Observatory, Tautenburg  (N50.980139 E11.711240)
   Germany.  Observer B. Stecklum. 1.34-m f/3 Schmidt + CCD.
(G96) Mt. Lemmon Survey  (N32.442729 W110.788720)  US/Arizona.  Observer E.
   J. Christensen. 1.5-m reflector + 10K CCD.
(H21) Astronomical Research Observatory, Westfield  (N39.483054 W87.968270)
   US/Illinois.  Observer R. Holmes. Measurers S. Foglia, L. Buzzi, T.
   Linder, R. Holmes. 0.76-m f/3.0 astrograph + CCD0.81-m f/4.0 astrograph +
   CCD0.61-m f/4.5 astrograph + CCD0.40-m f/5.32 astrograph + CCD.
(I52) Steward Observatory, Mt. Lemmon Station  (N32.442570 W110.788920)
   US/Arizona.  Observers T. A. Pruyne, B. M. Africano, E. J. Christensen, G.
   A. Farneth, D. C. Fuls, A. R. Gibbs, A. D. Grauer, H. Gröller, J. A.
   Johnson, R. A. Kowalski, S. M. Larson, G. J. Leonard, D. Rankin, R. L.
   Seaman, F. C. Shelly, K. W. Wierzchoś. 1.0-m prime focus + CCD.
(V06) Catalina Sky Survey-Kuiper  (N32.416871 W110.732550)  US/Arizona.
   Observers T. A. Pruyne, B. M. Africano, E. J. Christensen, G. A. Farneth,
   D. C. Fuls, A. R. Gibbs, A. D. Grauer, H. Gröller, J. A. Johnson, R. A.
   Kowalski, S. M. Larson, G. J. Leonard, D. Rankin, R. L. Seaman, F. C.
   Shelly, K. W. Wierzchoś. 1.55-m reflector + CCD.

Orbital elements:  CARRY52
   Perihelion 2025 Jan 4.68698 +/- 42.3 TT = 16:29:15 (JD 2460680.18698)
Epoch 2024 Sep  8.0 TT = JDT 2460561.5   Earth MOID: 0.3431   Ma: 0.0053
M 310.17262275 +/- 18               (J2000 ecliptic)             AutoNEOCP
n   0.41982176 +/- 0.146            Peri.   81.34374 +/- 30
a   1.76641502 +/- 0.409            Node    18.35684 +/- 2.2
e   0.3321638 +/- 0.147             Incl.   17.19252 +/- 2.5
P   2.348/857.491d         H 19.51  G  0.15   U 11.5  SR
q 1.17967581 +/- 0.132    Q 2.35315423 +/- 1.43
From 22 observations 2024 Sept. 7-8 (23.8 hr); mean residual 0".59
Residuals in arcseconds: 
240907 G96  .38-  .42-    240907 033  .70+  1.1+    240908 H21  .36-  .31-    
240907 G96  .59-  .45-    240907 033  .62+  .98+    240908 H21  .12+  .03-    
240907 G96  .06-  .01+    240907 033  .69+  1.1+    240908 I52  .36+  .54-    
240907 G96  .79-  .78-    240908 033  .57+  .86+    240908 I52  .90-  .59-    
240907 V06  .01+  .14-    240908 033  .64+  1.1+    240908 I52  .51-  .89-    
240907 V06  .11+  .24-    240908 033  .86+  .94+    240908 I52  .42-  .69-    
240907 V06  .17+  .20-    240908 H21  .52-  .01+    
240907 V06  .02+  .16-    240908 H21  .32-  .59-    

Ephemerides (geocentric):
Date (UTC) HH   RA             Dec           delta  r     elong  mag " sig PA
---- --------  ------------   ------------  ------ ------ -----  --- --------
2024 09 08 17  03 11 37.231   +14 57 14.01  .79545 1.5377 116.6 21.4 2.61 109
2024 09 08 18  03 11 40.501   +14 58 08.78  .79499 1.5375 116.6 21.4 2.93 112
2024 09 08 19  03 11 43.769   +14 59 03.59  .79452 1.5373 116.6 21.4 3.26 115
2024 09 08 20  03 11 47.036   +14 59 58.44  .79406 1.5371 116.7 21.4 3.62 117
2024 09 08 21  03 11 50.301   +15 00 53.33  .79360 1.5369 116.7 21.4 4.00 119
2024 09 08 22  03 11 53.565   +15 01 48.26  .79314 1.5368 116.7 21.4 4.39 120
2024 09 08 23  03 11 56.828   +15 02 43.23  .79268 1.5366 116.7 21.4 4.81 121
2024 09 09 00  03 12 00.089   +15 03 38.24  .79222 1.5364 116.7 21.4 5.24 122
2024 09 09 01  03 12 03.349   +15 04 33.29  .79176 1.5362 116.8 21.4 5.68 123
2024 09 09 02  03 12 06.607   +15 05 28.38  .79129 1.5360 116.8 21.4 6.15 124
2024 09 09 03  03 12 09.864   +15 06 23.51  .79083 1.5358 116.8 21.4 6.63 124
2024 09 09 04  03 12 13.120   +15 07 18.69  .79037 1.5356 116.8 21.4 7.13 125
2024 09 09 05  03 12 16.374   +15 08 13.90  .78991 1.5354 116.9 21.4 7.65 125
2024 09 09 06  03 12 19.627   +15 09 09.16  .78945 1.5352 116.9 21.4 8.19 126
2024 09 09 07  03 12 22.879   +15 10 04.46  .78899 1.5350 116.9 21.4 8.74 126
2024 09 09 08  03 12 26.129   +15 10 59.79  .78853 1.5349 116.9 21.4 9.31 127
2024 09 09 09  03 12 29.377   +15 11 55.17  .78807 1.5347 117.0 21.4 9.89 127
2024 09 09 10  03 12 32.624   +15 12 50.59  .78761 1.5345 117.0 21.4 10.5 127
2024 09 09 11  03 12 35.870   +15 13 46.05  .78715 1.5343 117.0 21.4 11.1 127
2024 09 09 12  03 12 39.115   +15 14 41.56  .78669 1.5341 117.0 21.4 11.8 128
2024 09 09 13  03 12 42.357   +15 15 37.10  .78623 1.5339 117.1 21.4 12.4 128
2024 09 09 14  03 12 45.599   +15 16 32.69  .78578 1.5337 117.1 21.4 13.1 128
2024 09 09 15  03 12 48.839   +15 17 28.31  .78532 1.5335 117.1 21.4 13.8 128
2024 09 09 16  03 12 52.078   +15 18 23.98  .78486 1.5333 117.1 21.4 14.5 129
2024 09 09 17  03 12 55.315   +15 19 19.69  .78440 1.5332 117.2 21.4 15.2 129
2024 09 09 18  03 12 58.551   +15 20 15.44  .78394 1.5330 117.2 21.4 15.9 129
2024 09 09 19  03 13 01.785   +15 21 11.24  .78348 1.5328 117.2 21.4 16.7 129
2024 09 09 20  03 13 05.018   +15 22 07.07  .78302 1.5326 117.2 21.4 17.5 129
2024 09 09 21  03 13 08.250   +15 23 02.95  .78257 1.5324 117.3 21.4 18.3 129
2024 09 09 22  03 13 11.480   +15 23 58.87  .78211 1.5322 117.3 21.4 19.1 129
2024 09 09 23  03 13 14.709   +15 24 54.83  .78165 1.5320 117.3 21.4 19.9 129
2024 09 10 00  03 13 17.936   +15 25 50.83  .78119 1.5318 117.3 21.4 20.7 130
2024 09 10 01  03 13 21.162   +15 26 46.88  .78074 1.5316 117.3 21.4 21.6 130
2024 09 10 02  03 13 24.386   +15 27 42.96  .78028 1.5315 117.4 21.4 22.5 130
2024 09 10 03  03 13 27.609   +15 28 39.09  .77982 1.5313 117.4 21.4 23.4 130
2024 09 10 04  03 13 30.831   +15 29 35.26  .77936 1.5311 117.4 21.4 24.3 130
2024 09 10 05  03 13 34.051   +15 30 31.48  .77891 1.5309 117.4 21.4 25.2 130
2024 09 10 06  03 13 37.269   +15 31 27.74  .77845 1.5307 117.5 21.4 26.2 130
2024 09 10 07  03 13 40.487   +15 32 24.03  .77800 1.5305 117.5 21.4 27.1 130
2024 09 10 08  03 13 43.702   +15 33 20.38  .77754 1.5303 117.5 21.4 28.1 130
2024 09 10 09  03 13 46.917   +15 34 16.76  .77708 1.5301 117.5 21.3 29.1 130
2024 09 10 10  03 13 50.129   +15 35 13.19  .77663 1.5299 117.6 21.3 30.1 130
2024 09 10 11  03 13 53.341   +15 36 09.66  .77617 1.5297 117.6 21.3 31.2 131
2024 09 10 12  03 13 56.551   +15 37 06.17  .77572 1.5296 117.6 21.3 32.2 131
2024 09 10 13  03 13 59.759   +15 38 02.72  .77526 1.5294 117.6 21.3 33.3 131
2024 09 10 14  03 14 02.966   +15 38 59.32  .77480 1.5292 117.7 21.3 34.4 131
2024 09 10 15  03 14 06.172   +15 39 55.96  .77435 1.5290 117.7 21.3 35.5 131
2024 09 10 16  03 14 09.376   +15 40 52.65  .77389 1.5288 117.7 21.3 36.6 131